[[{"header":{"parameterUnit":"m.s-1","parameterCategory":2,"la1":30.2991,"la2":30.254,"lo1":-89.0895,"lo2":-89.0444,"dy":0.0017,"dx":0.0017,"nx":28,"ny":28,"refTime":"2024-06-24T03:00:00:Z","depth":"0","parameterNumber":2,"parameterNumberName":"U-component_of_CURRENTS"},"data":[0,0,0,0,0,0,0,0,0,0,0,0,0,0,0,0,0,0,0,0,0,0,0,0,0,0,0,0,0,0,0,0,0,0,0,0,0,0,0,0,0,0,0,0,0,0,0,0,0,0,0,0,0,0,0,0,0,0,0.1694,0.1695,0,0.1725,0.1725,0.1725,0.1739,0.174,0.174,0.174,0.1738,0.1737,0.1737,0,0,0,0,0,0,0,0,0,0,0,0,0,0.1495,0.1499,0.1694,0.1695,0.1696,0.1725,0.1725,0.1725,0.1739,0.174,0.174,0.1741,0.1738,0.1737,0.1737,0,0,0,0,0,0,0,0,0,0,0,0,0,0.1555,0.15,0.1694,0.171,0.1712,0.1725,0.1725,0.1725,0.1739,0.174,0.174,0.1741,0.1738,0.1738,0.1737,0.1721,0,0,0.1735,0.1735,0,0,0,0,0,0,0,0,0.1552,0.1562,0.1707,0.1709,0.1711,0.1733,0.1653,0.1723,0.1739,0.1724,0.174,0.1741,0.1735,0.1735,0.1734,0.1721,0.1721,0.1735,0.1734,0.1734,0.1734,0,0,0,0,0,0,0,0.1548,0.156,0.1702,0.1708,0.171,0.1663,0.1673,0.1666,0.1722,0.1725,0.1728,0.1738,0.1736,0.1734,0.1734,0.1721,0.1735,0.1734,0.1734,0.1734,0.1741,0.1741,0,0,0,0,0,0,0.1561,0.1557,0.1701,0.1703,0.1636,0.1667,0.1678,0.1721,0.1723,0.1725,0.1737,0.1738,0.1735,0.1735,0.1734,0.1764,0.1734,0.1734,0.1733,0.174,0.1741,0.1741,0,0,0,0,0,0,0.1557,0.1575,0.17,0.1631,0.1645,0.1671,0.1719,0.1722,0.1732,0.1733,0.1734,0.1746,0.1736,0.1735,0.174,0.1762,0.1733,0.1733,0.1739,0.174,0.1741,0.1793,0,0,0,0,0,0,0.1552,0.1574,0.1607,0.1634,0.1649,0.1722,0.1719,0.1722,0.1738,0.174,0.174,0.174,0.1736,0.1741,0.1739,0.1761,0.1732,0.1739,0.174,0.1741,0.1791,0.1796,0.18,0,0,0,0,0,0.1545,0.1598,0.1609,0.1626,0.1696,0.1723,0.1726,0.1741,0.1738,0.1749,0.1747,0.1741,0.1747,0.1741,0.1739,0.1761,0.1738,0.174,0.1741,0.1789,0.1795,0.18,0,0,0,0,0,0,0.1543,0.1606,0.1618,0.1693,0.1709,0.1727,0.1743,0.1744,0.175,0.1751,0.1744,0.1744,0.1762,0.1747,0.1741,0.1765,0.1743,0.1744,0.178,0.1786,0.179,0.1865,0.1732,0,0,0,0,0,0.1555,0.1606,0.1645,0.1702,0.1712,0.1723,0.1734,0.1743,0.1753,0.1756,0.1753,0.1752,0.1762,0.1763,0.1766,0.177,0.1844,0.1784,0.1788,0.1792,0.1852,0.1985,0.2009,0.1746,0.1746,0.1746,0,0,0.1574,0.1611,0.1644,0.1702,0.1714,0.1732,0.1731,0.1756,0.1773,0.1753,0.1769,0.1769,0.1768,0.1785,0.179,0.1776,0.1899,0.1794,0.1798,0.1856,0.1989,0.2015,0.2039,0.1747,0.1746,0.1746,0,0,0.1608,0.1664,0.1699,0.1714,0.1739,0.1748,0.1757,0.1773,0.1785,0.1793,0.1796,0.1826,0.1802,0.1838,0.1845,0.1877,0.1923,0.1849,0.1932,0.2058,0.2083,0.2106,0.2213,0.2245,0.1847,0.1847,0.1847,0,0.1621,0.1679,0.1709,0.1729,0.1749,0.1756,0.1779,0.1791,0.1805,0.1842,0.1805,0.1862,0.1846,0.1926,0.1932,0.1896,0.1968,0.1908,0.2071,0.2095,0.2118,0.2222,0.2257,0.185,0.185,0.1849,0.1849,0,0.1663,0.1703,0.1722,0.1757,0.178,0.1803,0.1826,0.185,0.1854,0.1882,0.1955,0.1953,0.201,0.1985,0.1964,0.2104,0.2103,0.2067,0.2068,0.2148,0.2251,0.2287,0.1854,0.1853,0.1852,0.1851,0,0,0.1705,0.1745,0.1748,0.1764,0.1797,0.1821,0.1866,0.1929,0.1996,0.2004,0.2108,0.212,0.2158,0.2173,0.2161,0.2252,0.2439,0.2228,0.2234,0.2357,0.2728,0.2706,0.2742,0.2434,0.2441,0.2446,0.273,0,0.172,0.1755,0.1781,0.1817,0.1838,0.1875,0.1926,0.1989,0.2042,0.214,0.2192,0.2272,0.2215,0.2256,0.2348,0.2424,0.2539,0.2367,0.2615,0.2624,0.2614,0.2786,0.2742,0.2991,0.2764,0.277,0.2775,0,0.1738,0.1763,0.1798,0.1861,0.1879,0.1908,0.2024,0.2075,0.222,0.2274,0.2391,0.2439,0.259,0.2513,0.2755,0.2649,0.272,0.2765,0.2776,0.2782,0.2671,0.2876,0.3064,0.2955,0.2829,0.2825,0.2821,0,0.1724,0.1775,0.1804,0.1819,0.1893,0.1937,0.1991,0.2123,0.221,0.2388,0.2489,0.2653,0.276,0.2889,0.2976,0.2896,0.3239,0.3133,0.3192,0.3189,0.3221,0.3209,0.3362,0.3351,0.335,0.335,0.3349,0,0.1724,0.1747,0.18,0.1811,0.1885,0.1944,0.2064,0.2144,0.2314,0.2461,0.2571,0.2728,0.2867,0.3047,0.3098,0.3285,0.3355,0.3293,0.3299,0.3228,0.3215,0.3171,0.3068,0.336,0.3358,0.3356,0.3354,0,0.1703,0.1725,0.1764,0.1841,0.1871,0.1927,0.2078,0.2194,0.2339,0.2544,0.2615,0.2853,0.3093,0.3218,0.345,0.3458,0.3525,0.3643,0.3541,0.353,0.3434,0.3334,0.341,0.3309,0.3785,0.3787,0.3789,0,0.1723,0.1731,0.1776,0.1818,0.1851,0.1949,0.2045,0.2187,0.232,0.262,0.2733,0.3018,0.321,0.3544,0.3648,0.381,0.3625,0.383,0.3666,0.3509,0.3403,0.3192,0.3083,0.3724,0.3725,0.3725,0.3726,0,0.1784,0.1768,0.1801,0.1869,0.1945,0.2023,0.2158,0.2243,0.2453,0.262,0.2885,0.3059,0.34,0.3576,0.3777,0.3845,0.3643,0.3845,0.3744,0.3458,0.3187,0.3062,0.3425,0.3732,0.3731,0.3731,0.3731,0.373,0.188,0.1889,0.1932,0.1985,0.2042,0.2109,0.2167,0.2316,0.2489,0.2716,0.2915,0.3137,0.345,0.3736,0.3766,0.3801,0.3688,0.3732,0.3657,0.3483,0.329,0.3655,0.3903,0.3904,0.3904,0.3904,0.3904,0,0.2062,0.2042,0.2078,0.2126,0.2157,0.217,0.2274,0.2323,0.247,0.2677,0.2874,0.3206,0.3405,0.3575,0.3748,0.3651,0.3447,0.3552,0.3262,0.3186,0.362,0.3518,0.3619,0.3619,0.3619,0.3619,0.3619,0.3619,0.2201,0.2238,0.2195,0.2252,0.2251,0.2286,0.2308,0.235,0.245,0.2625,0.2789,0.2973,0.3286,0.3543,0.3527,0.3452,0.3149,0.3063,0.2956,0.3268,0.3277,0.3285,0.3169,0.3195,0.3194,0.2448,0.2442,0.2438]},{"header":{"parameterUnit":"m.s-1","parameterCategory":2,"la1":30.2991,"la2":30.254,"lo1":-89.0895,"lo2":-89.0444,"dy":0.0017,"dx":0.0017,"nx":28,"ny":28,"refTime":"2024-06-24T03:00:00:Z","depth":"0","parameterNumber":3,"parameterNumberName":"V-component_of_CURRENTS"},"data":[0,0,0,0,0,0,0,0,0,0,0,0,0,0,0,0,0,0,0,0,0,0,0,0,0,0,0,0,0,0,0,0,0,0,0,0,0,0,0,0,0,0,0,0,0,0,0,0,0,0,0,0,0,0,0,0,0,0,-0.0139,-0.0139,0,-0.0112,-0.0111,-0.0111,-0.0146,-0.0147,-0.0149,-0.015,-0.0154,-0.0153,-0.0152,0,0,0,0,0,0,0,0,0,0,0,0,0,-0.02,-0.0199,-0.014,-0.0139,-0.0139,-0.0112,-0.0111,-0.0111,-0.0146,-0.0147,-0.0149,-0.015,-0.0154,-0.0153,-0.0151,0,0,0,0,0,0,0,0,0,0,0,0,0,-0.0172,-0.0199,-0.014,-0.0154,-0.0155,-0.0112,-0.0111,-0.0111,-0.0145,-0.0147,-0.0149,-0.0151,-0.0155,-0.0153,-0.0151,-0.01,0,0,-0.0146,-0.0145,0,0,0,0,0,0,0,0,-0.0174,-0.017,-0.0152,-0.0153,-0.0154,-0.0135,-0.0134,-0.0109,-0.0145,-0.0148,-0.015,-0.0152,-0.0149,-0.0148,-0.0137,-0.01,-0.01,-0.0146,-0.0145,-0.0144,-0.0144,0,0,0,0,0,0,0,-0.0176,-0.0171,-0.0128,-0.0151,-0.0152,-0.0154,-0.0152,-0.0129,-0.0138,-0.0148,-0.0151,-0.0148,-0.015,-0.0138,-0.0137,-0.01,-0.0146,-0.0144,-0.0143,-0.0143,-0.0077,-0.0076,0,0,0,0,0,0,-0.0179,-0.0173,-0.0129,-0.0127,-0.017,-0.0151,-0.0149,-0.0138,-0.0137,-0.0139,-0.0146,-0.015,-0.014,-0.0139,-0.0138,-0.0101,-0.0144,-0.0142,-0.0141,-0.0077,-0.0077,-0.0076,0,0,0,0,0,0,-0.0181,-0.0175,-0.013,-0.0151,-0.0145,-0.0148,-0.0135,-0.0137,-0.0133,-0.0136,-0.0139,-0.0142,-0.0142,-0.014,-0.0121,-0.0101,-0.0142,-0.014,-0.0078,-0.0077,-0.0076,-0.0013,0,0,0,0,0,0,-0.0182,-0.0176,-0.0164,-0.0151,-0.0144,-0.0095,-0.0134,-0.0135,-0.0128,-0.0132,-0.0133,-0.0135,-0.0143,-0.0123,-0.0119,-0.01,-0.0139,-0.0079,-0.0078,-0.0077,-0.0016,-0.001,-0.0005,0,0,0,0,0,-0.0184,-0.0148,-0.0163,-0.0158,-0.0129,-0.0093,-0.0089,-0.0099,-0.0126,-0.0106,-0.0119,-0.0135,-0.0113,-0.012,-0.0116,-0.0096,-0.008,-0.0078,-0.0077,-0.0019,-0.0011,-0.0005,0,0,0,0,0,0,-0.0153,-0.0148,-0.0164,-0.0125,-0.0112,-0.01,-0.0079,-0.0093,-0.0085,-0.0096,-0.0113,-0.0114,-0.0093,-0.01,-0.0109,-0.0076,-0.0104,-0.0101,-0.0061,-0.0054,-0.0049,-0.0013,-0.0137,0,0,0,0,0,-0.0144,-0.0126,-0.0119,-0.0088,-0.0082,-0.0084,-0.0072,-0.0079,-0.0073,-0.0072,-0.0076,-0.0083,-0.0078,-0.0073,-0.0067,-0.0034,-0.0039,-0.0024,-0.0019,-0.0014,0.0017,0.0019,0.0028,-0.0071,-0.0071,-0.0071,0,0,-0.0123,-0.0118,-0.0107,-0.0082,-0.0076,-0.0045,-0.0081,-0.0055,-0.0034,-0.0071,-0.0043,-0.0058,-0.0066,-0.0039,-0.0031,-0.0045,0.0008,-0.0012,-0.0007,0.0022,0.0022,0.0032,0.004,-0.007,-0.007,-0.007,0,0,-0.0063,-0.0069,-0.0033,-0.0022,-0.001,-0.001,-0.0004,0.0007,0.0005,0.0032,0.0001,0.0003,0.0016,0.0016,0.0015,0.006,0.0037,0.0049,0.0114,0.0114,0.0123,0.0131,0.0126,0.0132,0.0053,0.0053,0.0053,0,-0.0039,0.0002,-0.0014,0.0023,0.0038,0.0006,0.005,0.0054,0.0068,0.0088,0.0046,0.0072,0.0047,0.0092,0.0091,0.0076,0.007,0.0088,0.0124,0.0131,0.0138,0.0131,0.0137,0.0056,0.0056,0.0056,0.0055,0,0.0046,0.0072,0.0098,0.0121,0.0139,0.0173,0.0168,0.0189,0.0169,0.0174,0.0207,0.0175,0.0198,0.0172,0.0143,0.0184,0.0161,0.0129,0.011,0.0152,0.0141,0.0147,0.0061,0.006,0.0059,0.0058,0,0,0.0118,0.015,0.0157,0.0183,0.019,0.0223,0.0256,0.0298,0.0351,0.0324,0.0393,0.0357,0.034,0.0339,0.0298,0.0283,0.0296,0.0229,0.0227,0.0232,0.0299,0.0271,0.0274,0.0268,0.027,0.0271,0.0269,0,0.0188,0.0266,0.0262,0.0336,0.0376,0.036,0.0409,0.0436,0.0449,0.0508,0.0463,0.0507,0.0403,0.0423,0.0389,0.0336,0.0317,0.03,0.0253,0.0252,0.0228,0.0282,0.028,0.0277,0.0274,0.0275,0.0276,0,0.0275,0.0313,0.0391,0.0452,0.0471,0.0508,0.0589,0.0635,0.069,0.0708,0.0726,0.0701,0.0693,0.0589,0.0516,0.0511,0.0419,0.0351,0.0349,0.0314,0.0236,0.0236,0.0287,0.0069,0.0284,0.0283,0.0283,0,0.0337,0.0408,0.047,0.0487,0.0549,0.0591,0.0633,0.07,0.0781,0.0849,0.0923,0.0885,0.0905,0.0781,0.0626,0.0582,0.0539,0.0459,0.0347,0.0343,0.0331,0.0324,0.0178,0.0412,0.0412,0.0412,0.0412,0,0.0417,0.0476,0.0505,0.0542,0.0649,0.0665,0.08,0.0845,0.0951,0.1093,0.1037,0.1143,0.0955,0.0901,0.0714,0.0567,0.0607,0.0388,0.0354,0.035,0.0344,0.0145,0.0047,0.0412,0.0412,0.0412,0.0412,0,0.05,0.0504,0.0593,0.0655,0.0679,0.0766,0.0903,0.1034,0.1101,0.1288,0.1324,0.1355,0.1292,0.1083,0.0908,0.0715,0.0444,0.0478,0.0483,0.0449,0.0119,0.0027,-0.0074,-0.016,0.0361,0.0361,0.036,0,0.0576,0.0622,0.0678,0.0747,0.0781,0.0901,0.1018,0.1103,0.1252,0.1439,0.1558,0.1555,0.1602,0.1325,0.0972,0.0661,0.0457,0.045,0.0354,0.0128,0.0,-0.0058,-0.0128,0.0354,0.0354,0.0353,0.0353,0,0.0754,0.0743,0.0804,0.0917,0.1025,0.1162,0.1319,0.1438,0.159,0.1735,0.1944,0.1993,0.1742,0.146,0.1012,0.0767,0.0318,0.0432,0.0206,0.0005,-0.0069,-0.0178,0.0314,0.035,0.035,0.035,0.0351,0.0351,0.0919,0.0976,0.104,0.1144,0.1266,0.1438,0.1567,0.1746,0.1967,0.2195,0.2226,0.2321,0.1883,0.1282,0.0929,0.0256,0.0282,0.005,-0.0035,-0.0068,-0.0172,0.0313,0.0299,0.0299,0.0299,0.0299,0.0299,0,0.1155,0.1179,0.1291,0.1412,0.1556,0.1573,0.1797,0.1938,0.2186,0.2374,0.2524,0.237,0.1809,0.1198,0.0319,-0.0128,-0.0292,-0.0372,-0.0476,-0.0522,-0.0088,-0.0115,-0.0228,-0.0227,-0.0227,-0.0227,-0.0227,-0.0226,0.1292,0.1414,0.1414,0.1657,0.1738,0.1941,0.2056,0.2246,0.2394,0.2611,0.2658,0.2682,0.2194,0.0698,-0.0349,-0.0588,-0.0875,-0.0915,-0.106,-0.0813,-0.0781,-0.0751,-0.0804,-0.1058,-0.1059,-0.1458,-0.1462,-0.1465]}],[{"header":{"parameterUnit":"m.s-1","parameterCategory":2,"la1":30.2991,"la2":30.254,"lo1":-89.0895,"lo2":-89.0444,"dy":0.0017,"dx":0.0017,"nx":28,"ny":28,"refTime":"2024-06-24T03:00:00:Z","depth":"2","parameterNumber":2,"parameterNumberName":"U-component_of_CURRENTS"},"data":[0,0,0,0,0,0,0,0,0,0,0,0,0,0,0,0,0,0,0,0,0,0,0,0,0,0,0,0,0,0,0,0,0,0,0,0,0,0,0,0,0,0,0,0,0,0,0,0,0,0,0,0,0,0,0,0,0,0,0.1444,0.1445,0,0.1581,0.1583,0.1584,0.165,0.165,0.165,0.165,0.1646,0.1646,0.1646,0,0,0,0,0,0,0,0,0,0,0,0,0,0.1292,0.1294,0.1443,0.1445,0.1447,0.1581,0.1583,0.1585,0.165,0.165,0.165,0.165,0.1646,0.1646,0.1646,0,0,0,0,0,0,0,0,0,0,0,0,0,0.1386,0.1294,0.1443,0.1496,0.1502,0.1581,0.1583,0.1585,0.165,0.165,0.165,0.165,0.1646,0.1646,0.1646,0.1645,0,0,0.1645,0.1645,0,0,0,0,0,0,0,0,0.138,0.1391,0.1487,0.1493,0.15,0.1599,0.1528,0.1598,0.165,0.1593,0.165,0.165,0.1617,0.1619,0.1647,0.1645,0.1645,0.1645,0.1645,0.1645,0.1645,0,0,0,0,0,0,0,0.1373,0.1386,0.1498,0.1488,0.1496,0.1532,0.1544,0.1543,0.1601,0.1598,0.1604,0.162,0.162,0.1647,0.1647,0.1645,0.1645,0.1645,0.1645,0.1645,0.1662,0.1662,0,0,0,0,0,0,0.1355,0.138,0.1493,0.1502,0.1439,0.1534,0.1549,0.1567,0.1604,0.1611,0.162,0.1622,0.1647,0.1647,0.1647,0.1677,0.1645,0.1645,0.1645,0.1661,0.1662,0.1662,0,0,0,0,0,0,0.1351,0.1364,0.1488,0.1444,0.1462,0.1536,0.1557,0.1569,0.1618,0.1622,0.1626,0.1657,0.1647,0.1647,0.1652,0.1676,0.1645,0.1645,0.166,0.1661,0.1662,0.1719,0,0,0,0,0,0,0.1346,0.1362,0.1377,0.1443,0.1464,0.1556,0.1557,0.1572,0.1627,0.1632,0.1654,0.1653,0.1647,0.1652,0.1652,0.1675,0.1645,0.166,0.1661,0.1662,0.1716,0.1721,0.1726,0,0,0,0,0,0.134,0.1374,0.1377,0.1391,0.1479,0.1558,0.1574,0.1625,0.1628,0.1665,0.166,0.1654,0.1658,0.1652,0.1652,0.1676,0.1659,0.166,0.1662,0.1714,0.172,0.1726,0,0,0,0,0,0,0.1329,0.1385,0.139,0.1441,0.1498,0.157,0.1621,0.1637,0.1668,0.1668,0.1659,0.1658,0.1674,0.1662,0.1656,0.1682,0.1658,0.1659,0.1698,0.1704,0.1709,0.1758,0.1644,0,0,0,0,0,0.1327,0.136,0.1419,0.1462,0.1499,0.1557,0.1596,0.1623,0.1657,0.1675,0.1671,0.1668,0.1678,0.168,0.1681,0.1692,0.173,0.1706,0.1711,0.1716,0.1755,0.1842,0.186,0.1666,0.1666,0.1666,0,0,0.1332,0.137,0.1388,0.1461,0.1517,0.1565,0.1584,0.1655,0.1678,0.1663,0.1686,0.1686,0.1684,0.1702,0.1707,0.1695,0.1783,0.1717,0.1721,0.1759,0.1846,0.1865,0.1883,0.1667,0.1667,0.1667,0,0,0.1376,0.1403,0.1452,0.1491,0.1567,0.1596,0.1616,0.1677,0.1701,0.1716,0.1713,0.1736,0.1724,0.1748,0.1754,0.1786,0.1807,0.177,0.1837,0.1921,0.1939,0.1955,0.2002,0.2022,0.1771,0.1772,0.1772,0,0.1379,0.1437,0.1481,0.1535,0.1567,0.1606,0.1656,0.1687,0.1725,0.1753,0.1725,0.1767,0.1758,0.1818,0.1828,0.1803,0.1843,0.1815,0.1932,0.1949,0.1965,0.2009,0.2031,0.1774,0.1774,0.1774,0.1774,0,0.1463,0.1492,0.1535,0.1593,0.1636,0.1689,0.1725,0.1756,0.1764,0.1791,0.1846,0.1843,0.1885,0.1871,0.1861,0.1964,0.1951,0.1931,0.1926,0.1989,0.2029,0.2051,0.1779,0.1778,0.1777,0.1776,0,0,0.1503,0.1573,0.1584,0.1603,0.1662,0.1707,0.1751,0.182,0.187,0.1884,0.1963,0.1976,0.2003,0.2015,0.2008,0.207,0.2195,0.2056,0.2058,0.2118,0.2371,0.2326,0.2345,0.2204,0.2209,0.2212,0.2345,0,0.1553,0.1625,0.1654,0.1707,0.1745,0.1776,0.1819,0.1874,0.1914,0.1989,0.2029,0.2094,0.2048,0.2086,0.2146,0.2193,0.226,0.216,0.2288,0.2292,0.226,0.2372,0.2181,0.2282,0.2366,0.237,0.2372,0,0.1621,0.1656,0.1709,0.1752,0.1781,0.1812,0.1898,0.1943,0.2053,0.2089,0.2173,0.2219,0.2326,0.2273,0.2411,0.2353,0.2385,0.2404,0.2409,0.2377,0.2291,0.2237,0.2318,0.2409,0.2406,0.2403,0.2401,0,0.1614,0.1686,0.1717,0.1731,0.1798,0.1837,0.1884,0.1981,0.2048,0.2179,0.2261,0.2366,0.2443,0.2517,0.2561,0.2514,0.2706,0.2637,0.2624,0.2619,0.2489,0.2465,0.2765,0.2764,0.2764,0.2764,0.2763,0,0.163,0.1655,0.1716,0.1728,0.1794,0.1845,0.1939,0.1997,0.2125,0.2223,0.2327,0.2429,0.2519,0.263,0.2643,0.2714,0.2778,0.2686,0.2679,0.2496,0.2472,0.2604,0.2583,0.2769,0.2768,0.2767,0.2766,0,0.1599,0.1634,0.1677,0.1753,0.1783,0.1831,0.1958,0.2036,0.2154,0.2293,0.2356,0.2523,0.2661,0.2736,0.2854,0.282,0.2884,0.2885,0.2648,0.2612,0.2713,0.2694,0.2904,0.2904,0.2904,0.2904,0.2904,0,0.1582,0.1597,0.1681,0.1717,0.175,0.1836,0.1905,0.2026,0.2106,0.2334,0.2401,0.2607,0.2707,0.2871,0.2873,0.2924,0.2934,0.2759,0.2639,0.2771,0.2743,0.2722,0.2703,0.247,0.2466,0.2463,0.2461,0,0.1551,0.1584,0.1625,0.1698,0.1764,0.184,0.1939,0.2003,0.2157,0.2273,0.2426,0.2543,0.2722,0.2707,0.279,0.2772,0.2735,0.2703,0.2957,0.2459,0.2372,0.2339,0.2334,0.2436,0.2438,0.244,0.2442,0.2443,0.1535,0.1559,0.1621,0.1676,0.1757,0.1821,0.1854,0.1962,0.2064,0.219,0.2326,0.2419,0.2515,0.255,0.2513,0.2492,0.2649,0.2529,0.2534,0.2543,0.2464,0.2382,0.2431,0.2434,0.2436,0.2438,0.2439,0,0.1507,0.1542,0.1596,0.1653,0.169,0.1767,0.1859,0.1848,0.1909,0.2071,0.215,0.2047,0.211,0.221,0.2154,0.2176,0.2102,0.2085,0.1976,0.2005,0.2031,0.192,0.1746,0.1744,0.1741,0.1739,0,0,0.1497,0.1515,0.1527,0.1554,0.1607,0.1628,0.166,0.1654,0.1731,0.1749,0.1808,0.1994,0.2161,0.1913,0.1913,0.183,0.1885,0.1758,0.2327,0.2229,0.225,0.2317,0.2186,0,0,0,0,0]},{"header":{"parameterUnit":"m.s-1","parameterCategory":2,"la1":30.2991,"la2":30.254,"lo1":-89.0895,"lo2":-89.0444,"dy":0.0017,"dx":0.0017,"nx":28,"ny":28,"refTime":"2024-06-24T03:00:00:Z","depth":"2","parameterNumber":3,"parameterNumberName":"V-component_of_CURRENTS"},"data":[0,0,0,0,0,0,0,0,0,0,0,0,0,0,0,0,0,0,0,0,0,0,0,0,0,0,0,0,0,0,0,0,0,0,0,0,0,0,0,0,0,0,0,0,0,0,0,0,0,0,0,0,0,0,0,0,0,0,-0.0366,-0.0365,0,-0.028,-0.0279,-0.0278,-0.0291,-0.0293,-0.0294,-0.0296,-0.0331,-0.0331,-0.0331,0,0,0,0,0,0,0,0,0,0,0,0,0,-0.0436,-0.0436,-0.0366,-0.0365,-0.0364,-0.028,-0.0279,-0.0278,-0.0291,-0.0293,-0.0295,-0.0296,-0.0331,-0.0331,-0.0331,0,0,0,0,0,0,0,0,0,0,0,0,0,-0.0384,-0.0435,-0.0367,-0.036,-0.0359,-0.028,-0.0279,-0.0277,-0.0291,-0.0293,-0.0295,-0.0297,-0.0332,-0.0331,-0.0331,-0.0285,0,0,-0.0329,-0.0329,0,0,0,0,0,0,0,0,-0.0387,-0.0382,-0.0362,-0.036,-0.0359,-0.0298,-0.0316,-0.0286,-0.029,-0.0317,-0.0296,-0.0298,-0.033,-0.0329,-0.0307,-0.0286,-0.0288,-0.0329,-0.0328,-0.0328,-0.0328,0,0,0,0,0,0,0,-0.0391,-0.0385,-0.0333,-0.0361,-0.0359,-0.0325,-0.0321,-0.031,-0.0315,-0.0315,-0.0316,-0.0304,-0.033,-0.0308,-0.0309,-0.0288,-0.0329,-0.0328,-0.0328,-0.0328,-0.0305,-0.0304,0,0,0,0,0,0,-0.0404,-0.0389,-0.0335,-0.033,-0.0378,-0.0322,-0.0318,-0.0316,-0.0313,-0.0313,-0.0303,-0.0305,-0.0308,-0.0309,-0.031,-0.0299,-0.0328,-0.0328,-0.0327,-0.0305,-0.0305,-0.0304,0,0,0,0,0,0,-0.0406,-0.04,-0.0339,-0.0356,-0.0346,-0.032,-0.0317,-0.0313,-0.0293,-0.0302,-0.0305,-0.0288,-0.0309,-0.0311,-0.0314,-0.03,-0.0327,-0.0327,-0.0305,-0.0305,-0.0305,-0.025,0,0,0,0,0,0,-0.0408,-0.0401,-0.0397,-0.0358,-0.0346,-0.0283,-0.0314,-0.031,-0.0283,-0.0285,-0.029,-0.0295,-0.0311,-0.0315,-0.0314,-0.03,-0.0327,-0.0306,-0.0305,-0.0305,-0.0252,-0.0248,-0.0244,0,0,0,0,0,-0.0411,-0.0376,-0.0397,-0.039,-0.0343,-0.0281,-0.0271,-0.0259,-0.028,-0.0254,-0.028,-0.0295,-0.0312,-0.0314,-0.0312,-0.0298,-0.0306,-0.0305,-0.0305,-0.0254,-0.0249,-0.0244,0,0,0,0,0,0,-0.0391,-0.0373,-0.0395,-0.0357,-0.0327,-0.0283,-0.0244,-0.025,-0.0243,-0.0254,-0.0282,-0.0287,-0.0287,-0.0298,-0.0301,-0.0293,-0.0314,-0.0313,-0.0276,-0.0271,-0.0267,-0.0251,-0.0326,0,0,0,0,0,-0.039,-0.0369,-0.0348,-0.0317,-0.0297,-0.0276,-0.0249,-0.0246,-0.0235,-0.0232,-0.0249,-0.0268,-0.0277,-0.0281,-0.0288,-0.0272,-0.0294,-0.0266,-0.0262,-0.0258,-0.0246,-0.0269,-0.0266,-0.0302,-0.0302,-0.0302,0,0,-0.0376,-0.036,-0.0351,-0.0312,-0.0285,-0.0251,-0.0264,-0.0213,-0.0202,-0.0238,-0.0231,-0.0249,-0.0271,-0.0264,-0.0264,-0.0274,-0.0262,-0.0257,-0.0254,-0.0243,-0.0268,-0.0265,-0.0262,-0.0302,-0.0302,-0.0302,0,0,-0.031,-0.0319,-0.0275,-0.0256,-0.0216,-0.0209,-0.0198,-0.0167,-0.0169,-0.016,-0.0195,-0.0209,-0.0213,-0.023,-0.0239,-0.0213,-0.024,-0.0215,-0.0177,-0.02,-0.0197,-0.0194,-0.0227,-0.0228,-0.0213,-0.0212,-0.0212,0,-0.0297,-0.0253,-0.0247,-0.0202,-0.0186,-0.0196,-0.0153,-0.0146,-0.0132,-0.0128,-0.0157,-0.0177,-0.0198,-0.0196,-0.0191,-0.0202,-0.0221,-0.0192,-0.0193,-0.0191,-0.019,-0.0224,-0.0225,-0.021,-0.021,-0.021,-0.0211,0,-0.0197,-0.0181,-0.0143,-0.0118,-0.0096,-0.0054,-0.0061,-0.0055,-0.0075,-0.0074,-0.0079,-0.0116,-0.0126,-0.0139,-0.0154,-0.0149,-0.0168,-0.0186,-0.0203,-0.0183,-0.022,-0.0223,-0.0206,-0.0207,-0.0208,-0.0208,0,0,-0.012,-0.0087,-0.0077,-0.0072,-0.0057,-0.0025,-0.0018,0.0003,0.0016,-0.0007,0.0008,-0.0024,-0.0041,-0.0053,-0.0084,-0.0106,-0.0118,-0.013,-0.0133,-0.0157,-0.0171,-0.0202,-0.0208,-0.0131,-0.0131,-0.0131,-0.0205,0,-0.0048,0.0023,0.0024,0.0066,0.0093,0.0064,0.0076,0.008,0.0072,0.0081,0.0036,0.0048,-0.001,-0.0004,-0.0041,-0.0086,-0.012,-0.0097,-0.0191,-0.0194,-0.0219,-0.0211,-0.0187,-0.0251,-0.0207,-0.0208,-0.0208,0,0.0052,0.0077,0.0131,0.0132,0.0146,0.0165,0.0172,0.0189,0.0189,0.0173,0.0159,0.0146,0.012,0.0065,-0.0028,-0.0006,-0.008,-0.0135,-0.0139,-0.0185,-0.0229,-0.0264,-0.0258,-0.0213,-0.0213,-0.0213,-0.0212,0,0.0102,0.0149,0.0183,0.0186,0.0195,0.0211,0.0224,0.0231,0.0258,0.0258,0.0285,0.0224,0.022,0.0119,0.0013,0.0005,-0.0101,-0.0131,-0.0241,-0.0245,-0.0252,-0.0257,-0.0206,-0.0206,-0.0206,-0.0206,-0.0206,0,0.0167,0.0194,0.0209,0.0223,0.0273,0.0269,0.033,0.0317,0.034,0.0391,0.0357,0.037,0.024,0.0176,0.0045,-0.0104,-0.0083,-0.0229,-0.0261,-0.0235,-0.0237,-0.0222,-0.0223,-0.0209,-0.0208,-0.0207,-0.0207,0,0.0208,0.0218,0.0257,0.0279,0.0296,0.0338,0.04,0.0449,0.0457,0.0519,0.0538,0.0494,0.0404,0.0259,0.0092,-0.0045,-0.0192,-0.0257,-0.0222,-0.0249,-0.0333,-0.033,-0.038,-0.0381,-0.0383,-0.0384,-0.0385,0,0.0215,0.0241,0.0299,0.0331,0.0346,0.0412,0.0468,0.0494,0.0543,0.0592,0.0623,0.0587,0.0536,0.0276,0.0043,-0.0194,-0.0217,-0.0328,-0.0346,-0.0322,-0.0348,-0.0343,-0.0339,-0.0342,-0.0342,-0.0343,-0.0343,0,0.0218,0.0253,0.0292,0.0369,0.0433,0.05,0.0574,0.0638,0.0685,0.0734,0.0758,0.0739,0.0523,0.0295,-0.0009,-0.0175,-0.0287,-0.0345,-0.032,-0.03,-0.0292,-0.0316,-0.0312,-0.0347,-0.0346,-0.0346,-0.0346,-0.0346,0.0205,0.0245,0.0308,0.0377,0.0476,0.056,0.0622,0.0719,0.0801,0.0894,0.0835,0.0825,0.0582,0.0206,-0.0065,-0.0325,-0.0329,-0.042,-0.0416,-0.0412,-0.0393,-0.0387,-0.0458,-0.0458,-0.0458,-0.0458,-0.0458,0,0.0157,0.0219,0.0296,0.0381,0.0487,0.0546,0.0668,0.0737,0.0859,0.0974,0.0982,0.0755,0.0506,0.0256,-0.0132,-0.0394,-0.0407,-0.0467,-0.0414,-0.041,-0.0406,-0.0385,-0.0448,-0.0449,-0.0449,-0.045,0,0,0.0115,0.0173,0.0222,0.0343,0.0444,0.057,0.065,0.0793,0.0898,0.1009,0.1046,0.0976,0.0644,0.037,0.0014,-0.0197,-0.0241,-0.0248,-0.0234,-0.0127,-0.0119,-0.0364,-0.0325,0,0,0,0,0]}],[{"header":{"parameterUnit":"m.s-1","parameterCategory":2,"la1":30.2991,"la2":30.254,"lo1":-89.0895,"lo2":-89.0444,"dy":0.0017,"dx":0.0017,"nx":28,"ny":28,"refTime":"2024-06-24T03:00:00:Z","depth":"4","parameterNumber":2,"parameterNumberName":"U-component_of_CURRENTS"},"data":[0,0,0,0,0,0,0,0,0,0,0,0,0,0,0,0,0,0,0,0,0,0,0,0,0,0,0,0,0,0,0,0,0,0,0,0,0,0,0,0,0,0,0,0,0,0,0,0,0,0,0,0,0,0,0,0,0,0,0.0812,0.0812,0,0.0881,0.0882,0.0882,0.0927,0.0927,0.0927,0.0927,0.1002,0.1003,0.1005,0,0,0,0,0,0,0,0,0,0,0,0,0,0.072,0.0721,0.0812,0.0813,0.0813,0.0881,0.0882,0.0883,0.0927,0.0927,0.0927,0.0927,0.1001,0.1003,0.1005,0,0,0,0,0,0,0,0,0,0,0,0,0,0.0772,0.0722,0.0812,0.0843,0.0846,0.088,0.0882,0.0883,0.0927,0.0927,0.0927,0.0928,0.1,0.1003,0.1005,0.1016,0,0,0.1014,0.1015,0,0,0,0,0,0,0,0,0.0769,0.0775,0.0838,0.0841,0.0845,0.0895,0.0876,0.0927,0.0927,0.0897,0.0927,0.0928,0.0966,0.0971,0.0984,0.1019,0.1022,0.1014,0.1015,0.1017,0.1017,0,0,0,0,0,0,0,0.0765,0.0773,0.084,0.0838,0.0843,0.0854,0.0862,0.0886,0.0929,0.09,0.0903,0.0909,0.0968,0.0982,0.0986,0.1023,0.1014,0.1016,0.1018,0.1019,0.1102,0.1103,0,0,0,0,0,0,0.0755,0.0769,0.0838,0.0842,0.0806,0.0855,0.0864,0.0879,0.0929,0.0937,0.0909,0.0911,0.0977,0.0983,0.0989,0.1062,0.1017,0.1019,0.1021,0.1101,0.1102,0.1103,0,0,0,0,0,0,0.0753,0.0761,0.0835,0.0806,0.0816,0.0857,0.0873,0.088,0.0918,0.0936,0.0944,0.0942,0.0977,0.0985,0.1029,0.1062,0.102,0.1023,0.1101,0.1102,0.1103,0.1169,0,0,0,0,0,0,0.075,0.076,0.078,0.0806,0.0817,0.087,0.0873,0.0881,0.092,0.0924,0.0967,0.0972,0.0978,0.1025,0.1032,0.1065,0.1025,0.11,0.1101,0.1102,0.1166,0.1172,0.1178,0,0,0,0,0,0.0747,0.0766,0.078,0.0789,0.0839,0.0871,0.0879,0.0908,0.0921,0.0944,0.097,0.0972,0.1036,0.1028,0.1036,0.1071,0.1099,0.1101,0.1102,0.1164,0.1171,0.1178,0,0,0,0,0,0,0.0735,0.0774,0.0789,0.082,0.0851,0.0879,0.0904,0.0923,0.0963,0.0974,0.0988,0.0996,0.1044,0.1043,0.1034,0.1094,0.1065,0.1068,0.111,0.1117,0.1122,0.112,0.1027,0,0,0,0,0,0.0741,0.077,0.0803,0.083,0.0848,0.0882,0.0903,0.0926,0.0956,0.0976,0.1006,0.103,0.1052,0.1074,0.1091,0.1133,0.1144,0.1155,0.1161,0.1166,0.1167,0.1215,0.1226,0.1107,0.1107,0.1107,0,0,0.0742,0.0769,0.0785,0.0831,0.0859,0.0892,0.0897,0.0938,0.0972,0.0976,0.1041,0.1057,0.1065,0.1109,0.113,0.1118,0.1207,0.1167,0.1172,0.117,0.1218,0.1229,0.124,0.1108,0.1108,0.1108,0,0,0.0755,0.0786,0.0816,0.0847,0.0895,0.0915,0.0932,0.0979,0.1009,0.1064,0.1071,0.1106,0.1151,0.1163,0.1172,0.1217,0.1234,0.1225,0.1262,0.131,0.132,0.133,0.1373,0.1386,0.1231,0.1231,0.1231,0,0.0756,0.0802,0.0829,0.0867,0.0897,0.0928,0.0966,0.0998,0.1056,0.1082,0.1093,0.116,0.1175,0.1214,0.1231,0.1234,0.1263,0.1241,0.132,0.1329,0.1338,0.138,0.1393,0.1235,0.1234,0.1234,0.1234,0,0.0794,0.0835,0.0856,0.0915,0.0947,0.0987,0.1028,0.1072,0.1111,0.114,0.1202,0.1226,0.1263,0.1274,0.1273,0.1336,0.1338,0.1322,0.1308,0.1354,0.1395,0.1408,0.124,0.1238,0.1237,0.1237,0,0,0.078,0.0866,0.0877,0.0912,0.098,0.1007,0.1065,0.1119,0.1162,0.1217,0.1273,0.1313,0.1331,0.1339,0.1347,0.1389,0.1482,0.1391,0.1392,0.1443,0.16,0.1511,0.1516,0.1493,0.1495,0.1496,0.1609,0,0.0805,0.088,0.0918,0.0985,0.1023,0.107,0.1117,0.117,0.122,0.1281,0.131,0.1366,0.1353,0.1389,0.1426,0.1471,0.1516,0.1453,0.1537,0.154,0.1464,0.1528,0.1503,0.1618,0.1621,0.1623,0.1625,0,0.0831,0.0878,0.0952,0.1025,0.1047,0.1091,0.1172,0.1222,0.1296,0.134,0.1393,0.142,0.149,0.1472,0.1574,0.1542,0.1577,0.1603,0.1608,0.1508,0.1474,0.1557,0.1648,0.1646,0.1644,0.1643,0.1641,0,0.0811,0.0898,0.0959,0.0989,0.1076,0.1119,0.1167,0.1243,0.1291,0.1388,0.1442,0.1505,0.1569,0.1616,0.1673,0.1644,0.1783,0.1744,0.1693,0.1687,0.1704,0.1692,0.1814,0.1814,0.1814,0.1814,0.1813,0,0.0817,0.0864,0.0959,0.0993,0.1058,0.1121,0.1194,0.1255,0.1342,0.1407,0.1475,0.154,0.1616,0.1693,0.1716,0.1753,0.1823,0.1713,0.1714,0.1729,0.1719,0.1714,0.1701,0.1818,0.1817,0.1816,0.1815,0,0.0785,0.0854,0.0921,0.102,0.1053,0.1101,0.1204,0.125,0.1352,0.1445,0.1487,0.1603,0.1712,0.177,0.1868,0.1814,0.1851,0.1844,0.1879,0.1878,0.1711,0.17,0.179,0.1788,0.1786,0.1785,0.1784,0,0.0774,0.081,0.0927,0.0966,0.1016,0.1094,0.1143,0.1246,0.13,0.1474,0.1515,0.166,0.1728,0.1796,0.1856,0.1899,0.187,0.1868,0.1757,0.1718,0.1711,0.1703,0.1694,0.1781,0.178,0.178,0.1779,0,0.0734,0.079,0.0844,0.0927,0.0991,0.1054,0.1139,0.117,0.1303,0.141,0.1517,0.1578,0.1698,0.1754,0.1809,0.1825,0.1852,0.1849,0.1851,0.1746,0.1708,0.17,0.1694,0.1773,0.1774,0.1775,0.1775,0,0.0695,0.0722,0.0801,0.0868,0.0943,0.0995,0.1048,0.1127,0.1194,0.1381,0.1422,0.1575,0.1695,0.1721,0.1771,0.1784,0.174,0.1658,0.1669,0.1677,0.1584,0.1515,0.1538,0,0,0,0,0,0.0642,0.0674,0.0732,0.08,0.0874,0.0923,0.1035,0.1091,0.1223,0.1269,0.1339,0.1445,0.1532,0.1605,0.1595,0.1709,0.1737,0.1688,0.1644,0.1739,0.1746,0.1644,0,0,0,0,0,0,0.0606,0.0659,0.0702,0.0729,0.0764,0.0834,0.0903,0.0999,0.103,0.1176,0.1234,0.1348,0.1453,0.1524,0.1563,0.1585,0.1526,0.1779,0.1775,0.1735,0.1742,0.1747,0.1645,0,0,0,0,0]},{"header":{"parameterUnit":"m.s-1","parameterCategory":2,"la1":30.2991,"la2":30.254,"lo1":-89.0895,"lo2":-89.0444,"dy":0.0017,"dx":0.0017,"nx":28,"ny":28,"refTime":"2024-06-24T03:00:00:Z","depth":"4","parameterNumber":3,"parameterNumberName":"V-component_of_CURRENTS"},"data":[0,0,0,0,0,0,0,0,0,0,0,0,0,0,0,0,0,0,0,0,0,0,0,0,0,0,0,0,0,0,0,0,0,0,0,0,0,0,0,0,0,0,0,0,0,0,0,0,0,0,0,0,0,0,0,0,0,0,0.022,0.0219,0,0.0117,0.0116,0.0114,0.0096,0.0097,0.0098,0.0099,-0.0025,-0.0029,-0.0033,0,0,0,0,0,0,0,0,0,0,0,0,0,0.0282,0.0282,0.022,0.0219,0.0218,0.0117,0.0115,0.0114,0.0095,0.0097,0.0098,0.0099,-0.0023,-0.0029,-0.0034,0,0,0,0,0,0,0,0,0,0,0,0,0,0.0223,0.0282,0.022,0.0198,0.0195,0.0117,0.0115,0.0113,0.0095,0.0097,0.0098,0.01,-0.0022,-0.0028,-0.0034,-0.0105,0,0,-0.0054,-0.0057,0,0,0,0,0,0,0,0,0.0227,0.0221,0.0202,0.0199,0.0196,0.0123,0.0092,0.004,0.0095,0.0131,0.0099,0.0101,0.0023,0.0013,-0.0013,-0.0111,-0.0117,-0.0055,-0.0058,-0.0061,-0.0063,0,0,0,0,0,0,0,0.0231,0.0224,0.0177,0.0201,0.0197,0.0153,0.0147,0.0081,0.0067,0.0128,0.0127,0.0118,0.0021,-0.0007,-0.0016,-0.0118,-0.0054,-0.006,-0.0064,-0.0066,-0.0234,-0.0235,0,0,0,0,0,0,0.0252,0.0229,0.018,0.0174,0.0218,0.0151,0.0144,0.0143,0.0068,0.0059,0.0117,0.0118,0.0003,-0.0008,-0.002,-0.0086,-0.0061,-0.0067,-0.0071,-0.0233,-0.0234,-0.0235,0,0,0,0,0,0,0.0254,0.0249,0.0184,0.02,0.0189,0.015,0.0147,0.014,0.0115,0.0061,0.0051,0.01,0.0004,-0.0011,-0.0077,-0.0091,-0.007,-0.0076,-0.0233,-0.0234,-0.0234,-0.0231,0,0,0,0,0,0,0.0256,0.0251,0.0252,0.0202,0.0189,0.0138,0.0146,0.0137,0.0108,0.0108,0.0042,0.0033,0.0004,-0.0067,-0.0084,-0.01,-0.0081,-0.0232,-0.0233,-0.0234,-0.0231,-0.0232,-0.0233,0,0,0,0,0,0.0259,0.0251,0.0253,0.0246,0.0195,0.0137,0.0126,0.0101,0.0106,0.0085,0.0047,0.0035,-0.0085,-0.0074,-0.0093,-0.0111,-0.0231,-0.0233,-0.0234,-0.023,-0.0232,-0.0233,0,0,0,0,0,0,0.0273,0.0247,0.0248,0.0232,0.0192,0.0136,0.0112,0.0096,0.0047,0.0048,0.0007,-0.0007,-0.0066,-0.0092,-0.0079,-0.0159,-0.0154,-0.0159,-0.0144,-0.0146,-0.0147,-0.0134,-0.0086,0,0,0,0,0,0.028,0.0271,0.0233,0.0218,0.02,0.0156,0.013,0.0111,0.0064,0.0045,-0.0003,-0.0046,-0.009,-0.0118,-0.0167,-0.0228,-0.024,-0.0244,-0.0245,-0.0246,-0.0246,-0.0276,-0.028,-0.0239,-0.0239,-0.0239,0,0,0.0284,0.0265,0.0262,0.022,0.0188,0.0149,0.0143,0.0099,0.0069,0.0035,-0.0027,-0.0064,-0.0107,-0.0164,-0.0191,-0.0187,-0.0264,-0.0248,-0.0248,-0.0248,-0.0278,-0.0282,-0.0285,-0.024,-0.024,-0.024,0,0,0.0267,0.0267,0.0246,0.0214,0.0166,0.0139,0.0129,0.0067,0.0046,-0.002,-0.004,-0.0083,-0.0167,-0.0193,-0.0215,-0.0257,-0.0272,-0.0268,-0.0268,-0.0297,-0.03,-0.0303,-0.0322,-0.0327,-0.0266,-0.0266,-0.0266,0,0.0271,0.0245,0.0227,0.019,0.0167,0.0137,0.0102,0.0066,-0.0009,-0.0028,-0.0035,-0.0138,-0.0177,-0.0227,-0.0234,-0.0261,-0.0274,-0.0258,-0.0298,-0.0301,-0.0305,-0.0323,-0.0328,-0.0266,-0.0266,-0.0266,-0.0266,0,0.0228,0.0211,0.0191,0.0149,0.012,0.0082,0.0043,0.0009,-0.0016,-0.0049,-0.0109,-0.0164,-0.0214,-0.0233,-0.0251,-0.0292,-0.0293,-0.0297,-0.0291,-0.0308,-0.0326,-0.0332,-0.0266,-0.0266,-0.0266,-0.0266,0,0,0.0225,0.0175,0.0168,0.0156,0.0099,0.0073,0.003,-0.0015,-0.0028,-0.0098,-0.0127,-0.0201,-0.0218,-0.0243,-0.0271,-0.0298,-0.0334,-0.0306,-0.0307,-0.0319,-0.0393,-0.0371,-0.0375,-0.0345,-0.0347,-0.0347,-0.0395,0,0.0196,0.0142,0.012,0.0079,0.0054,0.0031,0.0003,-0.0035,-0.0069,-0.0108,-0.0154,-0.0197,-0.0225,-0.0241,-0.0278,-0.0319,-0.035,-0.0321,-0.0379,-0.0381,-0.0355,-0.0381,-0.0351,-0.0399,-0.0401,-0.0401,-0.0402,0,0.0155,0.013,0.0087,0.0069,0.0057,0.0033,0.0008,-0.0024,-0.0072,-0.0093,-0.0142,-0.018,-0.0236,-0.025,-0.0335,-0.0315,-0.0356,-0.0387,-0.0389,-0.0373,-0.037,-0.0381,-0.0412,-0.0412,-0.0411,-0.041,-0.041,0,0.0158,0.0111,0.0088,0.0073,0.0039,0.0029,0.0015,-0.0022,-0.003,-0.0084,-0.0089,-0.0171,-0.0196,-0.0269,-0.0338,-0.0339,-0.0421,-0.0429,-0.0451,-0.045,-0.0455,-0.0451,-0.0492,-0.0492,-0.0492,-0.0492,-0.0491,0,0.0133,0.0113,0.0093,0.0077,0.0072,0.0045,0.004,0.0018,-0.0005,-0.0003,-0.0076,-0.0088,-0.0201,-0.0261,-0.0334,-0.0406,-0.0421,-0.0457,-0.0464,-0.0452,-0.0448,-0.0459,-0.0454,-0.0493,-0.0493,-0.0493,-0.0492,0,0.0119,0.0105,0.0086,0.0067,0.007,0.0065,0.007,0.0072,0.005,0.0052,0.004,-0.003,-0.0104,-0.0212,-0.0323,-0.0382,-0.0463,-0.0485,-0.0457,-0.0462,-0.0475,-0.047,-0.052,-0.0519,-0.0519,-0.0519,-0.0519,0,0.009,0.008,0.0087,0.0098,0.0089,0.0092,0.0105,0.0096,0.0109,0.0097,0.0106,0.0034,-0.0021,-0.0153,-0.0282,-0.0429,-0.0447,-0.0494,-0.0499,-0.0477,-0.048,-0.0475,-0.047,-0.0519,-0.0518,-0.0518,-0.0518,0,0.0035,0.0054,0.005,0.0093,0.0112,0.0144,0.0165,0.0188,0.0193,0.0174,0.018,0.0097,0.0014,-0.0121,-0.0237,-0.0344,-0.047,-0.0492,-0.0493,-0.0499,-0.0476,-0.0478,-0.0474,-0.0517,-0.0518,-0.0518,-0.0518,0,-0.0004,0.0006,0.0033,0.0082,0.0121,0.0189,0.0202,0.0236,0.0253,0.0253,0.0254,0.0154,0.0085,-0.0076,-0.0183,-0.029,-0.0321,-0.0357,-0.0366,-0.0368,-0.0316,-0.0264,-0.0251,0,0,0,0,0,-0.0053,-0.0013,0.0023,0.0092,0.0149,0.0191,0.0241,0.0258,0.0274,0.0298,0.0284,0.0213,0.0059,-0.0022,-0.012,-0.0203,-0.036,-0.0325,-0.041,-0.0513,-0.0514,-0.0477,0,0,0,0,0,0,-0.0085,-0.0052,0.0011,0.0102,0.0167,0.0238,0.0283,0.0303,0.032,0.0318,0.0242,0.0193,0.0038,0.0127,-0.0117,-0.0155,-0.0222,-0.0406,-0.0408,-0.0512,-0.0513,-0.0514,-0.0477,0,0,0,0,0]}]]